Time,TemperatureF,DewpointF,PressureIn,WindDirection,WindDirectionDegrees,WindSpeedMPH,WindSpeedGustMPH,Humidity,HourlyPrecipIn,Conditions,Clouds,dailyrainin,SoftwareType,DateUTC
2013-11-29 00:13:00,30.7,26.2,30.12,ENE,67,0.0,-999.0,83,-99.99,,,0.00,Acu-Link.com,2013-11-29 07:13:00,
2013-11-29 00:28:00,29.8,26.5,30.13,ENE,67,1.6,-999.0,87,-99.99,,,0.00,Acu-Link.com,2013-11-29 07:28:00,
2013-11-29 00:43:00,29.5,26.4,30.12,NNE,22,0.0,-999.0,88,-99.99,,,0.00,Acu-Link.com,2013-11-29 07:43:00,
2013-11-29 00:59:00,30.2,27.1,30.11,NNE,22,4.3,-999.0,88,-99.99,,,0.00,Acu-Link.com,2013-11-29 07:59:00,
2013-11-29 01:14:00,30.9,27.2,30.11,NW,315,3.8,-999.0,86,-99.99,,,0.00,Acu-Link.com,2013-11-29 08:14:00,
2013-11-29 01:29:00,31.5,27.2,30.11,NNW,337,4.3,-999.0,84,-99.99,,,0.00,Acu-Link.com,2013-11-29 08:29:00,
2013-11-29 01:44:00,31.5,26.9,30.12,NW,315,2.7,-999.0,83,-99.99,,,0.00,Acu-Link.com,2013-11-29 08:44:00,
2013-11-29 01:59:00,31.1,26.6,30.12,North,0,3.1,-999.0,83,-99.99,,,0.00,Acu-Link.com,2013-11-29 08:59:00,
2013-11-29 02:14:00,30.9,26.7,30.13,NNW,337,2.7,-999.0,84,-99.99,,,0.00,Acu-Link.com,2013-11-29 09:14:00,
2013-11-29 02:30:00,30.4,26.1,30.13,NNE,22,1.6,-999.0,84,-99.99,,,0.00,Acu-Link.com,2013-11-29 09:30:00,
2013-11-29 02:45:00,29.5,25.8,30.12,WNW,292,0.0,-999.0,86,-99.99,,,0.00,Acu-Link.com,2013-11-29 09:45:00,
2013-11-29 03:00:00,28.8,25.1,30.13,WNW,292,0.0,-999.0,86,-99.99,,,0.00,Acu-Link.com,2013-11-29 10:00:00,
2013-11-29 03:15:00,27.9,24.5,30.13,WNW,292,0.0,-999.0,87,-99.99,,,0.00,Acu-Link.com,2013-11-29 10:15:00,
2013-11-29 03:30:00,28.2,27.2,30.13,NNE,22,1.1,-999.0,96,-99.99,,,0.00,Acu-Link.com,2013-11-29 10:30:00,
2013-11-29 03:45:00,27.7,26.7,30.13,North,0,0.0,-999.0,96,-99.99,,,0.00,Acu-Link.com,2013-11-29 10:45:00,
2013-11-29 04:01:00,27.7,26.4,30.12,NNW,337,1.6,-999.0,95,-99.99,,,0.00,Acu-Link.com,2013-11-29 11:01:00,
2013-11-29 04:16:00,27.7,25.9,30.12,North,0,0.0,-999.0,93,-99.99,,,0.00,Acu-Link.com,2013-11-29 11:16:00,
2013-11-29 04:31:00,27.5,25.7,30.12,NW,315,0.0,-999.0,93,-99.99,,,0.00,Acu-Link.com,2013-11-29 11:31:00,
2013-11-29 04:46:00,27.0,25.2,30.13,North,0,1.6,-999.0,93,-99.99,,,0.00,Acu-Link.com,2013-11-29 11:46:00,
2013-11-29 05:02:00,27.3,25.8,30.13,NW,315,2.2,-999.0,94,-99.99,,,0.00,Acu-Link.com,2013-11-29 12:02:00,
2013-11-29 05:17:00,27.7,25.9,30.13,NNE,22,2.2,-999.0,93,-99.99,,,0.00,Acu-Link.com,2013-11-29 12:17:00,
2013-11-29 05:32:00,27.5,25.7,30.13,WNW,292,3.1,-999.0,93,-99.99,,,0.00,Acu-Link.com,2013-11-29 12:32:00,
2013-11-29 05:47:00,27.5,25.5,30.14,NNW,337,0.0,-999.0,92,-99.99,,,0.00,Acu-Link.com,2013-11-29 12:47:00,
2013-11-29 06:02:00,27.5,25.5,30.14,NNE,22,2.2,-999.0,92,-99.99,,,0.00,Acu-Link.com,2013-11-29 13:02:00,
2013-11-29 06:17:00,27.3,25.6,30.13,NE,45,2.2,-999.0,93,-99.99,,,0.00,Acu-Link.com,2013-11-29 13:17:00,
2013-11-29 06:33:00,27.1,25.4,30.15,NNE,22,3.1,-999.0,93,-99.99,,,0.00,Acu-Link.com,2013-11-29 13:33:00,
2013-11-29 06:48:00,27.3,25.3,30.15,NE,45,0.0,-999.0,92,-99.99,,,0.00,Acu-Link.com,2013-11-29 13:48:00,
2013-11-29 07:03:00,27.1,25.1,30.15,North,0,2.2,-999.0,92,-99.99,,,0.00,Acu-Link.com,2013-11-29 14:03:00,
2013-11-29 07:18:00,27.5,25.0,30.16,NNW,337,2.2,-999.0,90,-99.99,,,0.00,Acu-Link.com,2013-11-29 14:18:00,
2013-11-29 07:34:00,28.0,25.2,30.17,North,0,2.7,-999.0,89,-99.99,,,0.00,Acu-Link.com,2013-11-29 14:34:00,
2013-11-29 07:49:00,29.7,25.7,30.17,NNW,337,3.8,-999.0,85,-99.99,,,0.00,Acu-Link.com,2013-11-29 14:49:00,
2013-11-29 08:04:00,31.5,26.3,30.18,NE,45,3.8,-999.0,81,-99.99,,,0.00,Acu-Link.com,2013-11-29 15:04:00,
2013-11-29 08:19:00,34.2,28.0,30.17,ENE,67,2.2,-999.0,78,-99.99,,,0.00,Acu-Link.com,2013-11-29 15:19:00,
2013-11-29 08:34:00,33.8,27.7,30.18,NNE,22,3.1,-999.0,78,-99.99,,,0.00,Acu-Link.com,2013-11-29 15:34:00,
2013-11-29 08:49:00,35.8,29.0,30.18,NW,315,2.7,-999.0,76,-99.99,,,0.00,Acu-Link.com,2013-11-29 15:49:00,
2013-11-29 09:05:00,36.7,28.5,30.18,NNW,337,4.3,-999.0,72,-99.99,,,0.00,Acu-Link.com,2013-11-29 16:05:00,
2013-11-29 09:20:00,38.5,28.5,30.19,NNE,22,6.7,-999.0,67,-99.99,,,0.00,Acu-Link.com,2013-11-29 16:20:00,
2013-11-29 09:35:00,39.4,29.0,30.19,NNW,337,4.7,-999.0,66,-99.99,,,0.00,Acu-Link.com,2013-11-29 16:35:00,
2013-11-29 09:50:00,40.5,28.5,30.19,NNW,337,4.3,-999.0,62,-99.99,,,0.00,Acu-Link.com,2013-11-29 16:50:00,
2013-11-29 10:05:00,41.4,28.1,30.19,North,0,4.7,-999.0,59,-99.99,,,0.00,Acu-Link.com,2013-11-29 17:05:00,
2013-11-29 10:21:00,43.2,28.5,30.19,NNE,22,3.8,-999.0,56,-99.99,,,0.00,Acu-Link.com,2013-11-29 17:21:00,
2013-11-29 10:36:00,44.2,28.7,30.18,ESE,112,2.7,-999.0,54,-99.99,,,0.00,Acu-Link.com,2013-11-29 17:36:00,
2013-11-29 10:51:00,45.9,29.2,30.18,East,90,4.7,-999.0,52,-99.99,,,0.00,Acu-Link.com,2013-11-29 17:51:00,
2013-11-29 11:06:00,46.0,29.4,30.17,NE,45,3.8,-999.0,52,-99.99,,,0.00,Acu-Link.com,2013-11-29 18:06:00,
2013-11-29 11:22:00,48.2,29.4,30.17,East,90,4.3,-999.0,48,-99.99,,,0.00,Acu-Link.com,2013-11-29 18:22:00,
2013-11-29 11:37:00,48.7,29.9,30.16,NW,315,2.2,-999.0,48,-99.99,,,0.00,Acu-Link.com,2013-11-29 18:37:00,
2013-11-29 11:52:00,49.5,29.6,30.15,East,90,3.1,-999.0,46,-99.99,,,0.00,Acu-Link.com,2013-11-29 18:52:00,
2013-11-29 12:07:00,50.9,29.8,30.14,East,90,2.7,-999.0,44,-99.99,,,0.00,Acu-Link.com,2013-11-29 19:07:00,
2013-11-29 12:22:00,51.1,29.4,30.12,East,90,1.6,-999.0,43,-99.99,,,0.00,Acu-Link.com,2013-11-29 19:22:00,
2013-11-29 12:38:00,51.4,29.1,30.13,SE,135,2.7,-999.0,42,-99.99,,,0.00,Acu-Link.com,2013-11-29 19:38:00,
2013-11-29 12:53:00,53.1,29.4,30.12,WNW,292,2.2,-999.0,40,-99.99,,,0.00,Acu-Link.com,2013-11-29 19:53:00,
2013-11-29 13:08:00,53.8,29.4,30.11,SSE,157,3.8,-999.0,39,-99.99,,,0.00,Acu-Link.com,2013-11-29 20:08:00,
2013-11-29 13:23:00,54.7,28.9,30.11,SE,135,2.2,-999.0,37,-99.99,,,0.00,Acu-Link.com,2013-11-29 20:23:00,
2013-11-29 13:38:00,53.8,29.4,30.10,West,270,2.2,-999.0,39,-99.99,,,0.00,Acu-Link.com,2013-11-29 20:38:00,
2013-11-29 13:54:00,54.9,29.7,30.09,SE,135,3.8,-999.0,38,-99.99,,,0.00,Acu-Link.com,2013-11-29 20:54:00,
2013-11-29 14:09:00,53.4,29.7,30.08,SW,225,1.1,-999.0,40,-99.99,,,0.00,Acu-Link.com,2013-11-29 21:09:00,
2013-11-29 14:24:00,54.0,29.6,30.08,WNW,292,1.1,-999.0,39,-99.99,,,0.00,Acu-Link.com,2013-11-29 21:24:00,
2013-11-29 14:39:00,54.5,30.7,30.07,South,180,2.2,-999.0,40,-99.99,,,0.00,Acu-Link.com,2013-11-29 21:39:00,
2013-11-29 14:54:00,55.8,31.2,30.07,ESE,112,2.7,-999.0,39,-99.99,,,0.00,Acu-Link.com,2013-11-29 21:54:00,
2013-11-29 15:10:00,55.0,30.5,30.07,SSE,157,4.3,-999.0,39,-99.99,,,0.00,Acu-Link.com,2013-11-29 22:10:00,
2013-11-29 15:25:00,55.0,31.2,30.07,SSE,157,2.7,-999.0,40,-99.99,,,0.00,Acu-Link.com,2013-11-29 22:25:00,
2013-11-29 15:40:00,55.0,31.2,30.07,SSW,202,1.6,-999.0,40,-99.99,,,0.00,Acu-Link.com,2013-11-29 22:40:00,
2013-11-29 15:55:00,54.7,31.5,30.07,SW,225,2.2,-999.0,41,-99.99,,,0.00,Acu-Link.com,2013-11-29 22:55:00,
2013-11-29 16:11:00,54.3,31.1,30.07,SSE,157,2.2,-999.0,41,-99.99,,,0.00,Acu-Link.com,2013-11-29 23:11:00,
2013-11-29 16:26:00,53.8,31.2,30.07,SSE,157,3.1,-999.0,42,-99.99,,,0.00,Acu-Link.com,2013-11-29 23:26:00,
2013-11-29 16:41:00,52.2,31.5,30.08,SSW,202,2.2,-999.0,45,-99.99,,,0.00,Acu-Link.com,2013-11-29 23:41:00,
2013-11-29 16:56:00,50.7,31.2,30.08,SSW,202,0.0,-999.0,47,-99.99,,,0.00,Acu-Link.com,2013-11-29 23:56:00,
2013-11-29 17:11:00,49.5,30.6,30.08,SSW,202,0.0,-999.0,48,-99.99,,,0.00,Acu-Link.com,2013-11-30 00:11:00,
2013-11-29 17:27:00,47.7,30.4,30.08,SW,225,0.0,-999.0,51,-99.99,,,0.00,Acu-Link.com,2013-11-30 00:27:00,
2013-11-29 17:42:00,46.2,30.5,30.09,WSW,247,0.0,-999.0,54,-99.99,,,0.00,Acu-Link.com,2013-11-30 00:42:00,
2013-11-29 17:57:00,46.0,30.8,30.09,WSW,247,0.0,-999.0,55,-99.99,,,0.00,Acu-Link.com,2013-11-30 00:57:00,
2013-11-29 18:12:00,45.7,31.3,30.09,West,270,2.7,-999.0,57,-99.99,,,0.00,Acu-Link.com,2013-11-30 01:12:00,
2013-11-29 18:27:00,45.0,31.5,30.09,West,270,2.2,-999.0,59,-99.99,,,0.00,Acu-Link.com,2013-11-30 01:27:00,
2013-11-29 18:43:00,43.9,30.9,30.09,WSW,247,0.0,-999.0,60,-99.99,,,0.00,Acu-Link.com,2013-11-30 01:43:00,
2013-11-29 18:58:00,42.8,31.1,30.09,WSW,247,1.6,-999.0,63,-99.99,,,0.00,Acu-Link.com,2013-11-30 01:58:00,
2013-11-29 19:13:00,42.3,31.0,30.10,WSW,247,1.6,-999.0,64,-99.99,,,0.00,Acu-Link.com,2013-11-30 02:13:00,
2013-11-29 19:28:00,41.9,31.0,30.10,SSE,157,2.2,-999.0,65,-99.99,,,0.00,Acu-Link.com,2013-11-30 02:28:00,
2013-11-29 19:43:00,40.8,30.4,30.11,SSW,202,0.0,-999.0,66,-99.99,,,0.00,Acu-Link.com,2013-11-30 02:43:00,
2013-11-29 19:59:00,40.1,30.8,30.11,East,90,1.6,-999.0,69,-99.99,,,0.00,Acu-Link.com,2013-11-30 02:59:00,
2013-11-29 20:14:00,39.9,30.9,30.11,ENE,67,0.0,-999.0,70,-99.99,,,0.00,Acu-Link.com,2013-11-30 03:14:00,
2013-11-29 20:29:00,39.0,30.8,30.11,NW,315,0.0,-999.0,72,-99.99,,,0.00,Acu-Link.com,2013-11-30 03:29:00,
2013-11-29 20:44:00,38.7,30.8,30.12,North,0,1.6,-999.0,73,-99.99,,,0.00,Acu-Link.com,2013-11-30 03:44:00,
2013-11-29 20:59:00,38.7,30.8,30.11,North,0,0.0,-999.0,73,-99.99,,,0.00,Acu-Link.com,2013-11-30 03:59:00,
2013-11-29 21:15:00,37.9,31.1,30.11,NE,45,0.0,-999.0,76,-99.99,,,0.00,Acu-Link.com,2013-11-30 04:15:00,
2013-11-29 21:30:00,36.9,30.7,30.12,West,270,0.0,-999.0,78,-99.99,,,0.00,Acu-Link.com,2013-11-30 04:30:00,
2013-11-29 21:45:00,36.5,30.3,30.13,WNW,292,0.0,-999.0,78,-99.99,,,0.00,Acu-Link.com,2013-11-30 04:45:00,
2013-11-29 22:00:00,35.8,30.5,30.13,ESE,112,0.0,-999.0,81,-99.99,,,0.00,Acu-Link.com,2013-11-30 05:00:00,
2013-11-29 22:15:00,35.2,31.2,30.13,ENE,67,0.0,-999.0,85,-99.99,,,0.00,Acu-Link.com,2013-11-30 05:15:00,
2013-11-29 22:30:00,35.1,31.0,30.13,ENE,67,0.0,-999.0,85,-99.99,,,0.00,Acu-Link.com,2013-11-30 05:30:00,
2013-11-29 22:46:00,34.7,30.7,30.13,WNW,292,0.0,-999.0,85,-99.99,,,0.00,Acu-Link.com,2013-11-30 05:46:00,
2013-11-29 23:01:00,34.7,30.7,30.13,WNW,292,0.0,-999.0,85,-99.99,,,0.00,Acu-Link.com,2013-11-30 06:01:00,
2013-11-29 23:16:00,34.2,30.1,30.13,WNW,292,0.0,-999.0,85,-99.99,,,0.00,Acu-Link.com,2013-11-30 06:16:00,
2013-11-29 23:31:00,33.6,30.5,30.14,NE,45,0.0,-999.0,88,-99.99,,,0.00,Acu-Link.com,2013-11-30 06:31:00,
2013-11-29 23:46:00,33.4,30.6,30.13,NW,315,0.0,-999.0,89,-99.99,,,0.00,Acu-Link.com,2013-11-30 06:46:00,